Previsão horária em Xi'an

Hoje, 23 Junho, Quarta-feira

Tempo Temperatura Precipitação Vento Pressão Humidade
00:00 +30°C° 0 mm 3 m/s 718 mmHg 40%
01:00 +30°C° 0 mm 2 m/s 718 mmHg 41%
02:00 +29°C° 0 mm 3 m/s 718 mmHg 43%
03:00 +29°C° 0 mm 3 m/s 718 mmHg 44%
04:00 +28°C° 0 mm 3 m/s 718 mmHg 45%
05:00 +29°C° 0 mm 3 m/s 718 mmHg 45%
06:00 +29°C° 0 mm 3 m/s 719 mmHg 44%
07:00 +30°C° 0 mm 3 m/s 719 mmHg 43%
08:00 +31°C° 0 mm 2 m/s 719 mmHg 40%
09:00 +34°C° 0 mm 2 m/s 719 mmHg 36%
10:00 +35°C° 0 mm 2 m/s 719 mmHg 32%
11:00 +35°C° 0 mm 2 m/s 719 mmHg 33%
12:00 +35°C° 0 mm 2 m/s 719 mmHg 34%
13:00 +34°C° 0 mm 1 m/s 718 mmHg 34%
14:00 +33°C° 0 mm 1 m/s 718 mmHg 37%
15:00 +32°C° 0 mm 1 m/s 718 mmHg 39%
16:00 +32°C° 0 mm 1 m/s 718 mmHg 42%
17:00 +31°C° 0 mm 1 m/s 718 mmHg 42%
18:00 +31°C° 0 mm 1 m/s 718 mmHg 43%
19:00 +30°C° 0 mm 2 m/s 718 mmHg 44%
20:00 +30°C° 0 mm 2 m/s 718 mmHg 44%
21:00 +30°C° 0 mm 2 m/s 718 mmHg 44%
22:00 +29°C° 0 mm 2 m/s 718 mmHg 44%
23:00 +29°C° 0 mm 2 m/s 718 mmHg 45%

Amanhã, 24 Junho, Quinta-feira

Tempo Temperatura Precipitação Vento Pressão Humidade
00:00 +29°C° 0 mm 2 m/s 718 mmHg 45%
01:00 +29°C° 0 mm 2 m/s 718 mmHg 46%
02:00 +28°C° 0 mm 2 m/s 718 mmHg 46%
03:00 +28°C° 0 mm 2 m/s 718 mmHg 47%
04:00 +28°C° 0 mm 1 m/s 717 mmHg 48%
05:00 +28°C° 0 mm 1 m/s 718 mmHg 48%
06:00 +28°C° 0 mm 1 m/s 718 mmHg 48%
07:00 +28°C° 0 mm 1 m/s 718 mmHg 48%
08:00 +29°C° 0 mm 1 m/s 718 mmHg 46%
09:00 +30°C° 0 mm 1 m/s 718 mmHg 44%
10:00 +31°C° 0 mm 1 m/s 718 mmHg 41%
11:00 +32°C° 0 mm 1 m/s 718 mmHg 40%
12:00 +32°C° 0 mm 1 m/s 718 mmHg 39%
13:00 +34°C° 0 mm 2 m/s 717 mmHg 39%
14:00 +33°C° 0 mm 1 m/s 717 mmHg 38%
15:00 +33°C° 0 mm 1 m/s 717 mmHg 37%
16:00 +34°C° 0 mm 1 m/s 717 mmHg 37%
17:00 +32°C° 0 mm 2 m/s 717 mmHg 42%
18:00 +31°C° 0 mm 2 m/s 717 mmHg 47%
19:00 +30°C° 0 mm 3 m/s 718 mmHg 52%
20:00 +29°C° 0.1 mm 3 m/s 718 mmHg 54%
21:00 +29°C° 0.1 mm 3 m/s 719 mmHg 57%
22:00 +28°C° 0.1 mm 3 m/s 719 mmHg 60%
23:00 +28°C° 0.1 mm 3 m/s 719 mmHg 62%

Depois de amanhã, 25 Junho, Sexta-feira

Tempo Temperatura Precipitação Vento Pressão Humidade
00:00 +27°C° 0.1 mm 3 m/s 719 mmHg 64%
01:00 +27°C° 0.1 mm 3 m/s 719 mmHg 67%
02:00 +26°C° 0.2 mm 3 m/s 719 mmHg 70%
03:00 +25°C° 0.2 mm 3 m/s 719 mmHg 73%
04:00 +25°C° 0.2 mm 3 m/s 718 mmHg 77%
05:00 +25°C° 0 mm 2 m/s 719 mmHg 76%
06:00 +25°C° 0 mm 2 m/s 719 mmHg 75%
07:00 +25°C° 0 mm 2 m/s 719 mmHg 74%
08:00 +26°C° 0 mm 2 m/s 719 mmHg 70%
09:00 +27°C° 0 mm 2 m/s 719 mmHg 67%
10:00 +28°C° 0 mm 2 m/s 719 mmHg 64%
11:00 +29°C° 0 mm 2 m/s 718 mmHg 58%
12:00 +31°C° 0 mm 2 m/s 718 mmHg 52%
13:00 +33°C° 0 mm 1 m/s 717 mmHg 46%
14:00 +33°C° 0 mm 1 m/s 717 mmHg 44%
15:00 +34°C° 0 mm 1 m/s 716 mmHg 42%
16:00 +34°C° 0 mm 1 m/s 716 mmHg 41%
17:00 +33°C° 0 mm 1 m/s 716 mmHg 44%
18:00 +32°C° 0 mm 1 m/s 716 mmHg 47%
19:00 +31°C° 0 mm 2 m/s 716 mmHg 50%
20:00 +30°C° 0 mm 2 m/s 716 mmHg 54%
21:00 +30°C° 0 mm 2 m/s 716 mmHg 57%
22:00 +29°C° 0 mm 2 m/s 716 mmHg 60%
23:00 +28°C° 0 mm 2 m/s 716 mmHg 61%

26 Junho, Sábado

Tempo Temperatura Precipitação Vento Pressão Humidade
00:00 +28°C° 0 mm 1 m/s 716 mmHg 62%
01:00 +28°C° 0 mm 1 m/s 716 mmHg 62%
02:00 +27°C° 0 mm 1 m/s 716 mmHg 63%
03:00 +27°C° 0 mm 1 m/s 716 mmHg 64%
04:00 +26°C° 0 mm 1 m/s 716 mmHg 64%
05:00 +27°C° 0 mm 1 m/s 716 mmHg 61%
06:00 +29°C° 0 mm 1 m/s 717 mmHg 58%
07:00 +28°C° 0 mm 0 m/s 717 mmHg 55%
08:00 +29°C° 0 mm 0 m/s 717 mmHg 51%
09:00 +31°C° 0 mm 0 m/s 717 mmHg 46%
10:00 +32°C° 0 mm 0 m/s 717 mmHg 42%
11:00 +36°C° 0 mm 1 m/s 717 mmHg 38%
12:00 +37°C° 0 mm 1 m/s 716 mmHg 34%
13:00 +39°C° 0 mm 2 m/s 716 mmHg 30%
14:00 +40°C° 0 mm 2 m/s 715 mmHg 29%
15:00 +40°C° 0 mm 2 m/s 715 mmHg 27%
16:00 +40°C° 0 mm 2 m/s 714 mmHg 26%
17:00 +39°C° 0 mm 2 m/s 714 mmHg 29%
18:00 +37°C° 0 mm 2 m/s 714 mmHg 32%
19:00 +36°C° 0 mm 2 m/s 714 mmHg 35%
20:00 +35°C° 0 mm 2 m/s 714 mmHg 37%
21:00 +34°C° 0 mm 2 m/s 715 mmHg 39%
22:00 +31°C° 0 mm 2 m/s 715 mmHg 41%
23:00 +31°C° 0 mm 2 m/s 715 mmHg 44%

27 Junho, Domingo

Tempo Temperatura Precipitação Vento Pressão Humidade
00:00 +30°C° 0 mm 2 m/s 715 mmHg 47%
01:00 +29°C° 0 mm 2 m/s 715 mmHg 49%
02:00 +29°C° 0 mm 2 m/s 715 mmHg 51%
03:00 +29°C° 0 mm 2 m/s 715 mmHg 53%
04:00 +28°C° 0 mm 2 m/s 715 mmHg 55%
05:00 +29°C° 0 mm 1 m/s 716 mmHg 53%
06:00 +31°C° 0 mm 1 m/s 716 mmHg 50%
07:00 +32°C° 0 mm 1 m/s 717 mmHg 47%
08:00 +34°C° 0 mm 1 m/s 717 mmHg 42%
09:00 +36°C° 0 mm 1 m/s 717 mmHg 37%
10:00 +39°C° 0 mm 1 m/s 717 mmHg 31%
11:00 +40°C° 0 mm 1 m/s 716 mmHg 27%
12:00 +41°C° 0 mm 2 m/s 716 mmHg 23%
13:00 +43°C° 0 mm 2 m/s 715 mmHg 19%
14:00 +44°C° 0 mm 3 m/s 715 mmHg 19%
15:00 +44°C° 0 mm 4 m/s 714 mmHg 19%
16:00 +44°C° 0 mm 4 m/s 714 mmHg 18%
17:00 +42°C° 0 mm 4 m/s 714 mmHg 23%
18:00 +40°C° 0 mm 4 m/s 714 mmHg 27%
19:00 +37°C° 0 mm 3 m/s 714 mmHg 31%
20:00 +36°C° 0 mm 3 m/s 715 mmHg 33%
21:00 +35°C° 0 mm 3 m/s 715 mmHg 35%
22:00 +34°C° 0 mm 3 m/s 715 mmHg 37%
23:00 +33°C° 0 mm 3 m/s 715 mmHg 37%

28 Junho, Segunda-feira

Tempo Temperatura Precipitação Vento Pressão Humidade
00:00 +31°C° 0 mm 2 m/s 715 mmHg 38%
01:00 +31°C° 0 mm 2 m/s 715 mmHg 38%
02:00 +30°C° 0 mm 2 m/s 715 mmHg 39%
03:00 +30°C° 0 mm 2 m/s 716 mmHg 39%
04:00 +29°C° 0 mm 2 m/s 716 mmHg 40%
05:00 +30°C° 0 mm 2 m/s 716 mmHg 39%
06:00 +32°C° 0 mm 1 m/s 717 mmHg 37%
07:00 +33°C° 0 mm 1 m/s 717 mmHg 36%
08:00 +35°C° 0 mm 1 m/s 717 mmHg 32%
09:00 +37°C° 0 mm 1 m/s 717 mmHg 27%
10:00 +40°C° 0 mm 2 m/s 717 mmHg 22%
11:00 +41°C° 0 mm 2 m/s 717 mmHg 21%
12:00 +43°C° 0 mm 3 m/s 716 mmHg 19%
13:00 +44°C° 0 mm 4 m/s 715 mmHg 18%
14:00 +44°C° 0 mm 4 m/s 715 mmHg 18%
15:00 +45°C° 0 mm 5 m/s 715 mmHg 19%
16:00 +45°C° 0 mm 5 m/s 714 mmHg 19%
17:00 +42°C° 0 mm 5 m/s 714 mmHg 24%
18:00 +40°C° 0 mm 5 m/s 715 mmHg 28%
19:00 +36°C° 0 mm 5 m/s 715 mmHg 33%
20:00 +35°C° 0 mm 4 m/s 715 mmHg 34%
21:00 +34°C° 0 mm 4 m/s 715 mmHg 35%
22:00 +33°C° 0 mm 3 m/s 716 mmHg 36%
23:00 +33°C° 0 mm 3 m/s 715 mmHg 38%
Mostrar mais

Necessitamos do seu Consentimento

A Meteoprog e os seus Fornecedores de Serviços podem armazenar e aceder a dados pessoais como cookies, identificadores do dispositivo ou outras tecnologias semelhantes existentes no seu dispositivo e processar estes dados para personalizar conteúdos e anúncios, assim como funcionalidades nas redes sociais e análise de tráfego.

  • Armazenar e/ou aceder a informações no seu dispositivo

    Os cookies, identificadores do dispositivo ou outras informações podem ser armazenados ou acedidos no seu dispositivo, para os fins acima indicados.

  • Anúncios e conteúdos personalizados, medição de anúncios e conteúdos, dados sobre o público-alvo e desenvolvimento de produtos

    Os anúncios e os conteúdos podem ser personalizados com base num perfil. Podem ser adicionados dados adicionais para uma maior personalização dos anúncios e dos conteúdos. A eficácia dos anúncios e dos conteúdos pode ser medida. Podem ser obtidas informações sobre o público que visualizou os anúncios e os conteúdos. Estes dados podem ser usados para desenvolver ou melhorar sistemas, softwares ou a experiência do utilizador.

Ao clicar em "Eu concordo”, permitirá o uso de cookies, identificadores do dispositivo e web beacons mencionados ou outras tecnologias semelhantes. As configurações do navegador do seu dispositivo podem ser alteradas.

Para certos fins, podem ser invocados interesses legítimos ao invés de consentimento. Pode ler mais informação sobre este assunto na nossa Política de Privacidade e Cookies.